START_TIME,STEP,MOV.,M6,t_acc.,M7,t_acc.,M19,t_acc.,H36,t_acc.
1979-07-27 00:00:26.400 ,0,0,0.,12.0,0.,12.0,0.,12.0,0.,12.0
1979-07-27 00:00:38.400 ,0,0,0.,12.0,0.,12.0,0.,12.0,0.,12.0
1979-07-27 00:00:50.400 ,1,1,0.,12.0,0.,12.0,1.,12.0,0.,12.0
1979-07-27 00:01:02.400 ,1,1,0.,12.0,0.,12.0,0.,12.0,0.,12.0
1979-07-27 00:01:14.400 ,1,0,0.,12.0,0.,12.0,0.,12.0,0.,12.0
1979-07-27 00:01:26.400 ,1,0,0.,12.0,0.,12.0,0.,12.0,0.,12.0
1979-07-27 00:01:38.400 ,2,1,0.,12.0,0.,12.0,0.,12.0,0.,12.0
1979-07-27 00:01:50.400 ,2,1,0.,12.0,0.,12.0,0.,12.0,0.,12.0
1979-07-27 00:02:02.400 ,2,0,0.,12.0,0.,12.0,0.,12.0,0.,12.0
1979-07-27 00:02:14.400 ,2,0,0.,12.0,0.,12.0,0.,12.0,0.,12.0
1979-07-27 00:02:26.400 ,3,1,0.,12.0,0.,12.0,0.,12.0,0.,12.0
1979-07-27 00:02:38.400 ,3,1,0.,12.0,0.,12.0,0.,12.0,0.,12.0
1979-07-27 00:02:50.400 ,3,0,0.,12.0,0.,12.0,0.,12.0,0.,12.0
1979-07-27 00:03:02.400 ,3,0,0.,12.0,0.,12.0,0.,12.0,0.,12.0
1979-07-27 00:03:14.400 ,4,1,0.,12.0,0.,12.0,0.,12.0,0.,12.0
1979-07-27 00:03:26.400 ,4,1,0.,12.0,0.,12.0,0.,12.0,0.,12.0
1979-07-27 00:03:38.400 ,4,0,0.,12.0,0.,12.0,0.,12.0,0.,12.0
1979-07-27 00:03:50.400 ,4,0,0.,12.0,0.,12.0,0.,12.0,0.,12.0
1979-07-27 00:04:02.400 ,5,1,0.,12.0,0.,12.0,0.,12.0,0.,12.0
1979-07-27 00:04:14.400 ,5,1,0.,12.0,0.,12.0,0.,12.0,0.,12.0
1979-07-27 00:04:26.400 ,5,0,0.,12.0,0.,12.0,0.,12.0,0.,12.0
1979-07-27 00:04:38.400 ,5,0,0.,12.0,0.,12.0,0.,12.0,0.,12.0
1979-07-27 00:04:50.400 ,6,1,0.,12.0,0.,12.0,0.,12.0,0.,12.0
1979-07-27 00:05:02.400 ,6,1,0.,12.0,0.,12.0,0.,12.0,0.,12.0
1979-07-27 00:05:14.400 ,6,0,0.,12.0,0.,12.0,0.,12.0,0.,12.0
1979-07-27 00:05:26.400 ,6,0,0.,12.0,0.,12.0,0.,12.0,0.,12.0
1979-07-27 00:05:38.400 ,7,1,0.,12.0,0.,12.0,0.,12.0,0.,12.0
1979-07-27 00:05:50.400 ,7,1,0.,12.0,0.,12.0,0.,12.0,0.,12.0
1979-07-27 00:06:02.400 ,7,0,0.,12.0,0.,12.0,0.,12.0,0.,12.0
1979-07-27 00:06:14.400 ,7,0,0.,12.0,0.,12.0,0.,12.0,0.,12.0
1979-07-27 00:06:26.400 ,7,1,0.,12.0,0.,12.0,0.,12.0,0.,12.0
1979-07-27 00:06:38.400 ,7,1,0.,12.0,0.,12.0,0.,12.0,0.,12.0
1979-07-27 00:06:50.400 ,7,0,0.,12.0,0.,12.0,0.,12.0,0.,12.0
1979-07-27 00:07:02.400 ,7,0,0.,12.0,0.,12.0,0.,12.0,0.,12.0
1979-07-27 00:07:14.400 ,6,1,0.,12.0,0.,12.0,0.,12.0,0.,12.0
1979-07-27 00:07:26.400 ,6,1,0.,12.0,0.,12.0,0.,12.0,0.,12.0
1979-07-27 00:07:38.400 ,6,0,0.,12.0,0.,12.0,0.,12.0,0.,12.0
1979-07-27 00:07:50.400 ,6,0,0.,12.0,0.,12.0,0.,12.0,0.,12.0
1979-07-27 00:08:02.400 ,5,1,0.,12.0,0.,12.0,0.,12.0,0.,12.0
1979-07-27 00:08:14.400 ,5,1,0.,12.0,0.,12.0,0.,12.0,0.,12.0
1979-07-27 00:08:26.400 ,5,0,0.,12.0,0.,12.0,0.,12.0,0.,12.0
1979-07-27 00:08:38.400 ,5,0,0.,12.0,0.,12.0,0.,12.0,0.,12.0
1979-07-27 00:08:50.390 ,4,1,0.,12.0,0.,12.0,0.,12.0,0.,12.0
1979-07-27 00:09:02.400 ,4,1,0.,12.0,0.,12.0,0.,12.0,0.,12.0
1979-07-27 00:09:14.390 ,4,0,0.,12.0,0.,12.0,0.,12.0,0.,12.0
1979-07-27 00:09:26.400 ,4,0,0.,12.0,0.,12.0,0.,12.0,0.,12.0
1979-07-27 00:09:38.390 ,3,1,0.,12.0,0.,12.0,0.,12.0,0.,12.0
1979-07-27 00:09:50.400 ,3,1,0.,12.0,0.,12.0,0.,12.0,0.,12.0
1979-07-27 00:10:02.390 ,3,0,0.,12.0,0.,12.0,0.,12.0,0.,12.0
1979-07-27 00:10:14.400 ,3,0,0.,12.0,0.,12.0,0.,12.0,0.,12.0
1979-07-27 00:10:26.390 ,2,1,0.,12.0,0.,12.0,0.,12.0,0.,12.0
1979-07-27 00:10:38.400 ,2,1,0.,12.0,0.,12.0,0.,12.0,0.,12.0
1979-07-27 00:10:50.390 ,2,0,0.,12.0,0.,12.0,0.,12.0,0.,12.0
1979-07-27 00:11:02.400 ,2,0,0.,12.0,0.,12.0,0.,12.0,0.,12.0
1979-07-27 00:11:14.390 ,1,1,0.,12.0,0.,12.0,0.,12.0,0.,12.0
1979-07-27 00:11:26.400 ,1,1,0.,12.0,0.,12.0,0.,12.0,0.,12.0
1979-07-27 00:11:38.390 ,1,0,0.,12.0,0.,12.0,0.,12.0,0.,12.0
1979-07-27 00:11:50.400 ,1,0,0.,12.0,0.,12.0,0.,12.0,0.,12.0
1979-07-27 00:12:02.390 ,0,1,0.,12.0,0.,12.0,0.,12.0,0.,12.0
1979-07-27 00:12:14.400 ,0,1,0.,12.0,0.,12.0,0.,12.0,0.,12.0
1979-07-27 00:12:26.390 ,0,0,0.,12.0,0.,12.0,0.,12.0,0.,12.0
1979-07-27 00:12:38.400 ,0,0,0.,12.0,0.,12.0,0.,12.0,0.,12.0
1979-07-27 00:12:50.390 ,0,1,0.,12.0,0.,12.0,0.,12.0,0.,12.0
1979-07-27 00:13:02.400 ,0,1,0.,12.0,0.,12.0,0.,12.0,0.,12.0
1979-07-27 00:13:14.390 ,0,0,0.,12.0,0.,12.0,0.,12.0,0.,12.0
1979-07-27 00:13:26.400 ,0,0,0.,12.0,0.,12.0,0.,12.0,0.,12.0
1979-07-27 00:13:38.390 ,1,1,0.,12.0,0.,12.0,0.,12.0,0.,12.0
1979-07-27 00:13:50.400 ,1,1,0.,12.0,0.,12.0,0.,12.0,0.,12.0
1979-07-27 00:14:02.390 ,1,0,0.,12.0,0.,12.0,0.,12.0,0.,12.0
1979-07-27 00:14:14.400 ,1,0,0.,12.0,0.,12.0,0.,12.0,0.,12.0
1979-07-27 00:14:26.390 ,2,1,1.,12.0,0.,12.0,0.,12.0,0.,12.0
1979-07-27 00:14:38.400 ,2,1,0.,12.0,0.,12.0,0.,12.0,0.,12.0
1979-07-27 00:14:50.390 ,2,0,0.,12.0,0.,12.0,0.,12.0,0.,12.0
1979-07-27 00:15:02.400 ,2,0,0.,12.0,0.,12.0,0.,12.0,0.,12.0
1979-07-27 00:15:14.390 ,3,1,0.,12.0,0.,12.0,0.,12.0,0.,12.0
1979-07-27 00:15:26.400 ,3,1,0.,12.0,0.,12.0,0.,12.0,0.,12.0
1979-07-27 00:15:38.390 ,3,0,0.,12.0,0.,12.0,0.,12.0,0.,12.0
1979-07-27 00:15:50.400 ,3,0,0.,12.0,0.,12.0,0.,12.0,0.,12.0
1979-07-27 00:16:02.390 ,4,1,0.,12.0,0.,12.0,0.,12.0,0.,12.0
1979-07-27 00:16:14.390 ,4,1,0.,12.0,0.,12.0,0.,12.0,0.,12.0
1979-07-27 00:16:26.390 ,4,0,0.,12.0,0.,12.0,0.,12.0,0.,12.0
1979-07-27 00:16:38.400 ,4,0,0.,12.0,0.,12.0,0.,12.0,0.,12.0
1979-07-27 00:16:50.390 ,5,1,0.,12.0,0.,12.0,0.,12.0,0.,12.0
1979-07-27 00:17:02.400 ,5,1,0.,12.0,0.,12.0,0.,12.0,0.,12.0
1979-07-27 00:17:14.400 ,5,0,0.,12.0,0.,12.0,0.,12.0,0.,12.0
1979-07-27 00:17:26.400 ,5,0,0.,12.0,0.,12.0,0.,12.0,0.,12.0
1979-07-27 00:17:38.400 ,6,1,0.,12.0,0.,12.0,0.,12.0,0.,12.0
1979-07-27 00:17:50.400 ,6,1,0.,12.0,0.,12.0,0.,12.0,0.,12.0
1979-07-27 00:18:02.400 ,6,0,0.,12.0,0.,12.0,0.,12.0,0.,12.0
1979-07-27 00:18:14.400 ,6,0,0.,12.0,0.,12.0,0.,12.0,0.,12.0
1979-07-27 00:18:26.400 ,7,0,0.,12.0,0.,12.0,0.,12.0,0.,12.0
1979-07-27 00:18:38.400 ,7,0,0.,12.0,0.,12.0,0.,12.0,0.,12.0
1979-07-27 00:18:50.400 ,7,0,0.,12.0,0.,12.0,0.,12.0,0.,12.0
1979-07-27 00:19:02.400 ,7,0,0.,12.0,0.,12.0,0.,12.0,0.,12.0
1979-07-27 00:19:14.400 ,4,1,0.,12.0,0.,12.0,0.,12.0,0.,12.0
1979-07-27 00:19:26.400 ,4,1,0.,12.0,0.,12.0,0.,12.0,0.,12.0
1979-07-27 00:19:38.400 ,0,1,0.,12.0,0.,12.0,0.,12.0,0.,12.0
1979-07-27 00:19:50.400 ,0,1,0.,12.0,0.,12.0,0.,12.0,0.,12.0
1979-07-27 00:20:02.400 ,3,1,0.,12.0,0.,12.0,0.,12.0,0.,12.0
1979-07-27 00:20:14.400 ,3,1,0.,12.0,0.,12.0,0.,12.0,0.,12.0
1979-07-27 00:20:26.400 ,7,1,0.,12.0,0.,12.0,0.,12.0,0.,12.0
1979-07-27 00:20:38.400 ,7,1,0.,12.0,0.,12.0,0.,12.0,0.,12.0
1979-07-27 00:20:50.400 ,4,1,0.,12.0,0.,12.0,0.,12.0,0.,12.0
1979-07-27 00:21:02.400 ,4,1,0.,12.0,0.,12.0,0.,12.0,0.,12.0
1979-07-27 00:21:14.400 ,0,1,0.,12.0,0.,12.0,0.,12.0,0.,12.0
1979-07-27 00:21:26.400 ,0,1,0.,12.0,0.,12.0,0.,12.0,0.,12.0
1979-07-27 00:21:38.400 ,3,1,0.,12.0,0.,12.0,0.,12.0,0.,12.0
1979-07-27 00:21:50.400 ,3,1,0.,12.0,0.,12.0,0.,12.0,0.,12.0
1979-07-27 00:22:02.400 ,7,1,0.,12.0,0.,12.0,0.,12.0,0.,12.0
1979-07-27 00:22:14.400 ,7,1,0.,12.0,0.,12.0,0.,12.0,0.,12.0
1979-07-27 00:22:26.400 ,4,1,0.,12.0,0.,12.0,0.,12.0,0.,12.0
1979-07-27 00:22:38.400 ,4,1,0.,12.0,0.,12.0,0.,12.0,0.,12.0
1979-07-27 00:22:50.400 ,0,1,0.,12.0,0.,12.0,0.,12.0,0.,12.0
1979-07-27 00:23:02.400 ,0,1,0.,12.0,0.,12.0,0.,12.0,0.,12.0
1979-07-27 00:23:14.400 ,3,1,0.,12.0,0.,12.0,0.,12.0,0.,12.0
1979-07-27 00:23:26.400 ,3,1,0.,12.0,0.,12.0,0.,12.0,0.,12.0
1979-07-27 00:23:38.400 ,7,1,0.,12.0,0.,12.0,0.,12.0,0.,12.0
1979-07-27 00:23:50.400 ,7,1,0.,12.0,0.,12.0,0.,12.0,0.,12.0
1979-07-27 00:24:02.400 ,4,1,0.,12.0,0.,12.0,0.,12.0,0.,12.0
1979-07-27 00:24:14.400 ,4,1,0.,12.0,0.,12.0,0.,12.0,0.,12.0
1979-07-27 00:24:26.400 ,0,1,0.,12.0,0.,12.0,0.,12.0,0.,12.0
1979-07-27 00:24:38.400 ,0,1,0.,12.0,0.,12.0,0.,12.0,0.,12.0
1979-07-27 00:24:50.400 ,3,1,0.,12.0,0.,12.0,0.,12.0,0.,12.0
1979-07-27 00:25:02.400 ,3,1,0.,12.0,0.,12.0,0.,12.0,0.,12.0
1979-07-27 00:25:14.400 ,7,1,0.,12.0,0.,12.0,0.,12.0,0.,12.0
1979-07-27 00:25:26.400 ,7,1,0.,12.0,0.,12.0,0.,12.0,0.,12.0
1979-07-27 00:25:38.400 ,4,1,0.,12.0,0.,12.0,0.,12.0,0.,12.0
1979-07-27 00:25:50.400 ,4,1,0.,12.0,0.,12.0,0.,12.0,0.,12.0
1979-07-27 00:26:02.400 ,0,1,0.,12.0,0.,12.0,0.,12.0,0.,12.0
1979-07-27 00:26:14.400 ,0,1,0.,12.0,0.,12.0,0.,12.0,0.,12.0
1979-07-27 00:26:26.400 ,3,1,0.,12.0,0.,12.0,0.,12.0,0.,12.0
1979-07-27 00:26:38.400 ,3,1,0.,12.0,0.,12.0,0.,12.0,0.,12.0
1979-07-27 00:26:50.400 ,7,1,0.,12.0,0.,12.0,0.,12.0,0.,12.0
1979-07-27 00:27:02.400 ,7,1,0.,12.0,0.,12.0,0.,12.0,0.,12.0
1979-07-27 00:27:14.390 ,4,1,0.,12.0,0.,12.0,0.,12.0,0.,12.0
1979-07-27 00:27:26.390 ,4,1,0.,12.0,0.,12.0,0.,12.0,0.,12.0
1979-07-27 00:27:38.390 ,0,1,0.,12.0,0.,12.0,0.,12.0,0.,12.0
1979-07-27 00:27:50.390 ,0,1,0.,12.0,0.,12.0,0.,12.0,0.,12.0
1979-07-27 00:28:02.390 ,3,1,0.,12.0,0.,12.0,0.,12.0,0.,12.0
1979-07-27 00:28:14.390 ,3,1,0.,12.0,0.,12.0,0.,12.0,0.,12.0
1979-07-27 00:28:26.390 ,7,1,0.,12.0,0.,12.0,0.,12.0,0.,12.0
1979-07-27 00:28:38.390 ,7,1,0.,12.0,0.,12.0,0.,12.0,0.,12.0
1979-07-27 00:28:50.390 ,4,1,0.,12.0,0.,12.0,0.,12.0,0.,12.0
1979-07-27 00:29:02.390 ,4,1,0.,12.0,0.,12.0,0.,12.0,0.,12.0
1979-07-27 00:29:14.390 ,0,1,0.,12.0,0.,12.0,0.,12.0,0.,12.0
1979-07-27 00:29:26.390 ,0,1,0.,12.0,0.,12.0,0.,12.0,0.,12.0
1979-07-27 00:29:38.390 ,0,0,0.,12.0,0.,12.0,0.,12.0,0.,12.0
1979-07-27 00:29:50.390 ,0,0,0.,12.0,0.,12.0,0.,12.0,0.,12.0
1979-07-27 00:30:02.390 ,0,0,0.,12.0,0.,12.0,0.,12.0,0.,12.0
1979-07-27 00:30:14.390 ,0,0,0.,12.0,0.,12.0,0.,12.0,0.,12.0
1979-07-27 00:30:26.390 ,5,1,0.,12.0,0.,12.0,0.,12.0,0.,12.0
1979-07-27 00:30:38.390 ,5,1,0.,12.0,0.,12.0,0.,12.0,0.,12.0
1979-07-27 00:30:50.390 ,5,0,0.,12.0,0.,12.0,0.,12.0,0.,12.0
1979-07-27 00:31:02.390 ,5,0,0.,12.0,0.,12.0,0.,12.0,0.,12.0
1979-07-27 00:31:14.390 ,4,1,0.,12.0,0.,12.0,0.,12.0,0.,12.0
1979-07-27 00:31:26.390 ,4,1,0.,12.0,0.,12.0,0.,12.0,0.,12.0
1979-07-27 00:31:38.390 ,4,0,0.,12.0,0.,12.0,0.,12.0,0.,12.0
1979-07-27 00:31:50.390 ,4,0,0.,12.0,0.,12.0,0.,12.0,0.,12.0
1979-07-27 00:32:02.390 ,3,1,0.,12.0,0.,12.0,0.,12.0,0.,12.0
1979-07-27 00:32:14.390 ,3,1,0.,12.0,0.,12.0,0.,12.0,0.,12.0
1979-07-27 00:32:26.390 ,3,0,0.,12.0,0.,12.0,0.,12.0,0.,12.0
1979-07-27 00:32:38.390 ,3,0,0.,12.0,0.,12.0,0.,12.0,0.,12.0
1979-07-27 00:32:50.390 ,2,1,0.,12.0,0.,12.0,0.,12.0,0.,12.0
1979-07-27 00:33:02.390 ,2,1,0.,12.0,0.,12.0,0.,12.0,0.,12.0
1979-07-27 00:33:14.390 ,2,0,0.,12.0,0.,12.0,0.,12.0,0.,12.0
1979-07-27 00:33:26.390 ,2,0,0.,12.0,0.,12.0,0.,12.0,0.,12.0
1979-07-27 00:33:38.390 ,1,1,0.,12.0,0.,12.0,0.,12.0,0.,12.0
1979-07-27 00:33:50.390 ,1,1,1.,12.0,0.,12.0,0.,12.0,0.,12.0
1979-07-27 00:34:02.390 ,1,0,0.,12.0,0.,12.0,0.,12.0,0.,12.0
1979-07-27 00:34:14.390 ,1,0,0.,12.0,0.,12.0,0.,12.0,0.,12.0
1979-07-27 00:34:26.390 ,0,1,0.,12.0,0.,12.0,0.,12.0,0.,12.0
1979-07-27 00:34:38.390 ,0,1,0.,12.0,0.,12.0,0.,12.0,0.,12.0
1979-07-27 00:34:50.390 ,0,0,0.,12.0,0.,12.0,0.,12.0,0.,12.0
1979-07-27 00:35:02.390 ,0,0,0.,12.0,0.,12.0,0.,12.0,0.,12.0
1979-07-27 00:35:14.390 ,0,1,0.,12.0,0.,12.0,0.,12.0,0.,12.0
1979-07-27 00:35:26.390 ,0,1,0.,12.0,0.,12.0,0.,12.0,0.,12.0
1979-07-27 00:35:38.390 ,0,0,0.,12.0,0.,12.0,0.,12.0,0.,12.0
1979-07-27 00:35:50.390 ,0,0,0.,12.0,0.,12.0,0.,12.0,0.,12.0
1979-07-27 00:36:02.390 ,1,1,0.,12.0,0.,12.0,0.,12.0,0.,12.0
1979-07-27 00:36:14.390 ,1,1,0.,12.0,0.,12.0,0.,12.0,0.,12.0
1979-07-27 00:36:26.390 ,1,0,0.,12.0,0.,12.0,0.,12.0,0.,12.0
1979-07-27 00:36:38.390 ,1,0,0.,12.0,0.,12.0,0.,12.0,0.,12.0
1979-07-27 00:36:50.390 ,2,1,0.,12.0,0.,12.0,0.,12.0,0.,12.0
1979-07-27 00:37:02.390 ,2,1,0.,12.0,0.,12.0,0.,12.0,0.,12.0
1979-07-27 00:37:14.390 ,2,0,0.,12.0,0.,12.0,0.,12.0,0.,12.0
1979-07-27 00:37:26.390 ,2,0,0.,12.0,0.,12.0,0.,12.0,0.,12.0
1979-07-27 00:37:38.390 ,3,1,0.,12.0,0.,12.0,0.,12.0,0.,12.0
1979-07-27 00:37:50.390 ,3,1,0.,12.0,0.,12.0,0.,12.0,0.,12.0
1979-07-27 00:38:02.390 ,3,0,0.,12.0,0.,12.0,0.,12.0,0.,12.0
1979-07-27 00:38:14.390 ,3,0,0.,12.0,0.,12.0,0.,12.0,0.,12.0
1979-07-27 00:38:26.390 ,4,1,0.,12.0,0.,12.0,0.,12.0,0.,12.0
1979-07-27 00:38:38.390 ,4,1,0.,12.0,0.,12.0,0.,12.0,0.,12.0
1979-07-27 00:38:50.390 ,4,0,0.,12.0,0.,12.0,0.,12.0,0.,12.0
1979-07-27 00:39:02.390 ,4,0,0.,12.0,0.,12.0,0.,12.0,0.,12.0
1979-07-27 00:39:14.390 ,5,1,0.,12.0,0.,12.0,0.,12.0,0.,12.0
1979-07-27 00:39:26.390 ,5,1,0.,12.0,0.,12.0,0.,12.0,0.,12.0
1979-07-27 00:39:38.390 ,5,0,0.,12.0,0.,12.0,0.,12.0,0.,12.0
1979-07-27 00:39:50.390 ,5,0,0.,12.0,0.,12.0,0.,12.0,0.,12.0
1979-07-27 00:40:02.390 ,6,1,0.,12.0,0.,12.0,0.,12.0,1.,12.0
1979-07-27 00:40:14.390 ,6,1,0.,12.0,0.,12.0,0.,12.0,0.,12.0
1979-07-27 00:40:26.390 ,6,0,0.,12.0,0.,12.0,0.,12.0,0.,12.0
1979-07-27 00:40:38.390 ,6,0,0.,12.0,0.,12.0,0.,12.0,0.,12.0
1979-07-27 00:40:50.390 ,7,1,0.,12.0,0.,12.0,0.,12.0,0.,12.0
1979-07-27 00:41:02.390 ,7,1,0.,12.0,0.,12.0,0.,12.0,0.,12.0
1979-07-27 00:41:14.390 ,7,0,0.,12.0,0.,12.0,0.,12.0,0.,12.0
1979-07-27 00:41:26.390 ,7,0,0.,12.0,0.,12.0,0.,12.0,0.,12.0
1979-07-27 00:41:38.390 ,7,1,0.,12.0,0.,12.0,0.,12.0,0.,12.0
1979-07-27 00:41:50.390 ,7,1,0.,12.0,0.,12.0,0.,12.0,0.,12.0
1979-07-27 00:42:02.390 ,7,0,0.,12.0,0.,12.0,0.,12.0,0.,12.0
1979-07-27 00:42:14.390 ,7,0,0.,12.0,0.,12.0,0.,12.0,0.,12.0
1979-07-27 00:42:26.390 ,6,1,0.,12.0,0.,12.0,0.,12.0,0.,12.0
1979-07-27 00:42:38.390 ,6,1,0.,12.0,0.,12.0,0.,12.0,0.,12.0
1979-07-27 00:42:50.390 ,6,0,0.,12.0,0.,12.0,0.,12.0,0.,12.0
1979-07-27 00:43:02.390 ,6,0,0.,12.0,0.,12.0,0.,12.0,0.,12.0
1979-07-27 00:43:14.390 ,5,1,0.,12.0,0.,12.0,0.,12.0,0.,12.0
1979-07-27 00:43:26.390 ,5,1,0.,12.0,0.,12.0,0.,12.0,0.,12.0
1979-07-27 00:43:38.390 ,5,0,0.,12.0,0.,12.0,0.,12.0,0.,12.0
1979-07-27 00:43:50.390 ,5,0,0.,12.0,0.,12.0,0.,12.0,0.,12.0
1979-07-27 00:44:02.390 ,4,1,0.,12.0,0.,12.0,0.,12.0,0.,12.0
1979-07-27 00:44:14.390 ,4,1,0.,12.0,0.,12.0,0.,12.0,0.,12.0
1979-07-27 00:44:26.390 ,4,0,0.,12.0,0.,12.0,0.,12.0,0.,12.0
1979-07-27 00:44:38.390 ,4,0,0.,12.0,0.,12.0,0.,12.0,0.,12.0
1979-07-27 00:44:50.390 ,3,1,0.,12.0,0.,12.0,0.,12.0,0.,12.0
1979-07-27 00:45:02.390 ,3,1,0.,12.0,0.,12.0,0.,12.0,0.,12.0
1979-07-27 00:45:14.390 ,3,0,0.,12.0,0.,12.0,0.,12.0,0.,12.0
1979-07-27 00:45:26.390 ,3,0,0.,12.0,0.,12.0,0.,12.0,0.,12.0
1979-07-27 00:45:38.390 ,2,1,0.,12.0,0.,12.0,0.,12.0,0.,12.0
1979-07-27 00:45:50.390 ,2,1,0.,12.0,0.,12.0,0.,12.0,0.,12.0
1979-07-27 00:46:02.390 ,2,0,0.,12.0,0.,12.0,0.,12.0,0.,12.0
1979-07-27 00:46:14.390 ,2,0,0.,12.0,0.,12.0,0.,12.0,0.,12.0
1979-07-27 00:46:26.390 ,1,1,0.,12.0,0.,12.0,0.,12.0,0.,12.0
1979-07-27 00:46:38.390 ,1,1,0.,12.0,0.,12.0,0.,12.0,0.,12.0
1979-07-27 00:46:50.390 ,1,0,0.,12.0,0.,12.0,0.,12.0,0.,12.0
1979-07-27 00:47:02.390 ,1,0,0.,12.0,0.,12.0,0.,12.0,0.,12.0
1979-07-27 00:47:14.390 ,0,1,0.,12.0,0.,12.0,0.,12.0,0.,12.0
1979-07-27 00:47:26.390 ,0,1,0.,12.0,0.,12.0,0.,12.0,0.,12.0
1979-07-27 00:47:38.390 ,0,0,0.,12.0,0.,12.0,0.,12.0,0.,12.0
1979-07-27 00:47:50.390 ,0,0,0.,12.0,0.,12.0,0.,12.0,0.,12.0
1979-07-27 00:48:02.390 ,0,1,0.,12.0,0.,12.0,0.,12.0,0.,12.0
1979-07-27 00:48:14.390 ,0,1,0.,12.0,0.,12.0,0.,12.0,0.,12.0
1979-07-27 00:48:26.390 ,0,0,0.,12.0,0.,12.0,0.,12.0,0.,12.0
1979-07-27 00:48:38.390 ,0,0,0.,12.0,0.,12.0,0.,12.0,0.,12.0
1979-07-27 00:48:50.390 ,1,1,0.,12.0,0.,12.0,0.,12.0,0.,12.0
1979-07-27 00:49:02.390 ,1,1,0.,12.0,0.,12.0,0.,12.0,0.,12.0
1979-07-27 00:49:14.390 ,1,0,0.,12.0,0.,12.0,0.,12.0,0.,12.0
1979-07-27 00:49:26.390 ,1,0,0.,12.0,0.,12.0,0.,12.0,0.,12.0
1979-07-27 00:49:38.390 ,2,1,0.,12.0,0.,12.0,0.,12.0,0.,12.0
1979-07-27 00:49:50.390 ,2,1,0.,12.0,0.,12.0,0.,12.0,0.,12.0
1979-07-27 00:50:02.390 ,2,0,0.,12.0,0.,12.0,0.,12.0,0.,12.0
1979-07-27 00:50:14.390 ,2,0,0.,12.0,0.,12.0,0.,12.0,0.,12.0
1979-07-27 00:50:26.390 ,3,1,0.,12.0,0.,12.0,0.,12.0,0.,12.0
1979-07-27 00:50:38.390 ,3,1,0.,12.0,0.,12.0,0.,12.0,0.,12.0
1979-07-27 00:50:50.390 ,3,0,0.,12.0,0.,12.0,0.,12.0,0.,12.0
1979-07-27 00:51:02.390 ,3,0,0.,12.0,0.,12.0,0.,12.0,0.,12.0
1979-07-27 00:51:14.390 ,4,1,0.,12.0,0.,12.0,0.,12.0,0.,12.0
1979-07-27 00:51:26.390 ,4,1,0.,12.0,0.,12.0,0.,12.0,0.,12.0
1979-07-27 00:51:38.390 ,4,0,0.,12.0,0.,12.0,0.,12.0,0.,12.0
1979-07-27 00:51:50.390 ,4,0,0.,12.0,0.,12.0,0.,12.0,0.,12.0
1979-07-27 00:52:02.390 ,5,1,0.,12.0,0.,12.0,0.,12.0,0.,12.0
1979-07-27 00:52:14.390 ,5,1,0.,12.0,0.,12.0,0.,12.0,0.,12.0
1979-07-27 00:52:26.390 ,5,0,0.,12.0,0.,12.0,0.,12.0,0.,12.0
1979-07-27 00:52:38.390 ,5,0,0.,12.0,0.,12.0,0.,12.0,0.,12.0
1979-07-27 00:52:50.390 ,6,1,0.,12.0,0.,12.0,0.,12.0,0.,12.0
1979-07-27 00:53:02.390 ,6,1,0.,12.0,0.,12.0,0.,12.0,0.,12.0
1979-07-27 00:53:14.390 ,6,0,0.,12.0,0.,12.0,0.,12.0,0.,12.0
1979-07-27 00:53:26.390 ,6,0,0.,12.0,0.,12.0,0.,12.0,0.,12.0
1979-07-27 00:53:38.390 ,7,1,0.,12.0,0.,12.0,0.,12.0,0.,12.0
1979-07-27 00:53:50.390 ,7,1,0.,12.0,0.,12.0,0.,12.0,0.,12.0
1979-07-27 00:54:02.390 ,7,0,0.,12.0,0.,12.0,0.,12.0,0.,12.0
1979-07-27 00:54:14.390 ,7,0,0.,12.0,0.,12.0,0.,12.0,0.,12.0
1979-07-27 00:54:26.390 ,7,1,0.,12.0,0.,12.0,0.,12.0,0.,12.0
1979-07-27 00:54:38.390 ,7,1,0.,12.0,0.,12.0,0.,12.0,0.,12.0
1979-07-27 00:54:50.390 ,7,0,0.,12.0,0.,12.0,0.,12.0,0.,12.0
1979-07-27 00:55:02.390 ,7,0,0.,12.0,0.,12.0,0.,12.0,0.,12.0
1979-07-27 00:55:14.390 ,6,1,0.,12.0,0.,12.0,0.,12.0,0.,12.0
1979-07-27 00:55:26.390 ,6,1,0.,12.0,0.,12.0,0.,12.0,0.,12.0
1979-07-27 00:55:38.390 ,6,0,0.,12.0,0.,12.0,0.,12.0,0.,12.0
1979-07-27 00:55:50.390 ,6,0,0.,12.0,0.,12.0,0.,12.0,0.,12.0
1979-07-27 00:56:02.390 ,5,1,0.,12.0,0.,12.0,0.,12.0,0.,12.0
1979-07-27 00:56:14.390 ,5,1,0.,12.0,0.,12.0,0.,12.0,0.,12.0
1979-07-27 00:56:26.390 ,5,0,0.,12.0,0.,12.0,0.,12.0,0.,12.0
1979-07-27 00:56:38.390 ,5,0,0.,12.0,0.,12.0,0.,12.0,0.,12.0
1979-07-27 00:56:50.390 ,4,1,0.,12.0,0.,12.0,0.,12.0,0.,12.0
1979-07-27 00:57:02.390 ,4,1,0.,12.0,0.,12.0,0.,12.0,0.,12.0
1979-07-27 00:57:14.390 ,4,0,0.,12.0,0.,12.0,0.,12.0,0.,12.0
1979-07-27 00:57:26.390 ,4,0,0.,12.0,0.,12.0,0.,12.0,0.,12.0
1979-07-27 00:57:38.390 ,3,1,0.,12.0,0.,12.0,0.,12.0,0.,12.0
1979-07-27 00:57:50.390 ,3,1,0.,12.0,0.,12.0,0.,12.0,0.,12.0
1979-07-27 00:58:02.390 ,3,0,0.,12.0,0.,12.0,0.,12.0,0.,12.0
1979-07-27 00:58:14.390 ,3,0,0.,12.0,0.,12.0,0.,12.0,0.,12.0
1979-07-27 00:58:26.390 ,2,1,0.,12.0,0.,12.0,0.,12.0,0.,12.0
1979-07-27 00:58:38.390 ,2,1,0.,12.0,0.,12.0,0.,12.0,0.,12.0
1979-07-27 00:58:50.390 ,2,0,0.,12.0,0.,12.0,0.,12.0,0.,12.0
1979-07-27 00:59:02.390 ,2,0,0.,12.0,0.,12.0,0.,12.0,0.,12.0
1979-07-27 00:59:14.390 ,1,1,0.,12.0,0.,12.0,0.,12.0,0.,12.0
1979-07-27 00:59:26.390 ,1,1,0.,12.0,0.,12.0,0.,12.0,0.,12.0
1979-07-27 00:59:38.390 ,1,0,0.,12.0,0.,12.0,0.,12.0,0.,12.0
1979-07-27 00:59:50.390 ,1,0,0.,12.0,0.,12.0,0.,12.0,0.,12.0
1979-07-27 01:00:02.390 ,0,1,0.,12.0,0.,12.0,0.,12.0,0.,12.0
1979-07-27 01:00:14.390 ,0,1,0.,12.0,0.,12.0,0.,12.0,0.,12.0
1979-07-27 01:00:26.390 ,0,0,0.,12.0,0.,12.0,0.,12.0,0.,12.0
1979-07-27 01:00:38.390 ,0,0,0.,12.0,0.,12.0,0.,12.0,0.,12.0
1979-07-27 01:00:50.390 ,0,1,0.,12.0,0.,12.0,0.,12.0,0.,12.0
1979-07-27 01:01:02.390 ,0,1,0.,12.0,0.,12.0,0.,12.0,0.,12.0
1979-07-27 01:01:14.390 ,0,0,0.,12.0,0.,12.0,0.,12.0,0.,12.0
1979-07-27 01:01:26.390 ,0,0,0.,12.0,0.,12.0,0.,12.0,0.,12.0
1979-07-27 01:01:38.390 ,1,1,0.,12.0,0.,12.0,0.,12.0,0.,12.0
1979-07-27 01:01:50.390 ,1,1,0.,12.0,0.,12.0,0.,12.0,0.,12.0
1979-07-27 01:02:02.390 ,1,0,0.,12.0,0.,12.0,0.,12.0,0.,12.0
1979-07-27 01:02:14.390 ,1,0,0.,12.0,0.,12.0,0.,12.0,0.,12.0
1979-07-27 01:02:26.390 ,2,1,0.,12.0,0.,12.0,0.,12.0,0.,12.0
1979-07-27 01:02:38.390 ,2,1,0.,12.0,0.,12.0,0.,12.0,0.,12.0
1979-07-27 01:02:50.390 ,2,0,0.,12.0,0.,12.0,0.,12.0,0.,12.0
1979-07-27 01:03:02.390 ,2,0,0.,12.0,0.,12.0,0.,12.0,0.,12.0
1979-07-27 01:03:14.390 ,3,1,0.,12.0,0.,12.0,0.,12.0,0.,12.0
1979-07-27 01:03:26.390 ,3,1,0.,12.0,0.,12.0,0.,12.0,0.,12.0
1979-07-27 01:03:38.390 ,3,0,0.,12.0,0.,12.0,0.,12.0,0.,12.0
1979-07-27 01:03:50.390 ,3,0,0.,12.0,0.,12.0,0.,12.0,0.,12.0
1979-07-27 01:04:02.390 ,4,1,0.,12.0,0.,12.0,0.,12.0,0.,12.0
1979-07-27 01:04:14.390 ,4,1,0.,12.0,0.,12.0,0.,12.0,0.,12.0
1979-07-27 01:04:26.390 ,4,0,0.,12.0,0.,12.0,0.,12.0,0.,12.0
1979-07-27 01:04:38.390 ,4,0,0.,12.0,0.,12.0,0.,12.0,0.,12.0
1979-07-27 01:04:50.390 ,5,1,0.,12.0,0.,12.0,0.,12.0,0.,12.0
1979-07-27 01:05:02.390 ,5,1,0.,12.0,0.,12.0,0.,12.0,0.,12.0
1979-07-27 01:05:14.390 ,5,0,0.,12.0,0.,12.0,0.,12.0,0.,12.0
1979-07-27 01:05:26.390 ,5,0,0.,12.0,0.,12.0,0.,12.0,0.,12.0
1979-07-27 01:05:38.390 ,6,1,0.,12.0,0.,12.0,0.,12.0,0.,12.0
1979-07-27 01:05:50.390 ,6,1,0.,12.0,0.,12.0,0.,12.0,0.,12.0
1979-07-27 01:06:02.390 ,6,0,0.,12.0,0.,12.0,0.,12.0,0.,12.0
1979-07-27 01:06:14.390 ,6,0,0.,12.0,0.,12.0,0.,12.0,0.,12.0
1979-07-27 01:06:26.390 ,7,0,0.,12.0,0.,12.0,0.,12.0,0.,12.0
1979-07-27 01:06:38.390 ,7,0,0.,12.0,0.,12.0,0.,12.0,0.,12.0
1979-07-27 01:06:50.390 ,7,0,0.,12.0,0.,12.0,0.,12.0,0.,12.0
1979-07-27 01:07:02.390 ,7,0,0.,12.0,0.,12.0,0.,12.0,0.,12.0
1979-07-27 01:07:14.390 ,4,1,0.,12.0,0.,12.0,0.,12.0,0.,12.0
1979-07-27 01:07:26.390 ,4,1,0.,12.0,0.,12.0,0.,12.0,0.,12.0
1979-07-27 01:07:38.390 ,0,1,0.,12.0,0.,12.0,0.,12.0,0.,12.0
1979-07-27 01:07:50.390 ,0,1,0.,12.0,0.,12.0,0.,12.0,0.,12.0
1979-07-27 01:08:02.390 ,3,1,0.,12.0,0.,12.0,0.,12.0,0.,12.0
1979-07-27 01:08:14.390 ,3,1,0.,12.0,0.,12.0,0.,12.0,0.,12.0
1979-07-27 01:08:26.390 ,7,1,0.,12.0,0.,12.0,0.,12.0,0.,12.0
1979-07-27 01:08:38.390 ,7,1,0.,12.0,0.,12.0,0.,12.0,0.,12.0
1979-07-27 01:08:50.390 ,4,1,0.,12.0,0.,12.0,0.,12.0,0.,12.0
1979-07-27 01:09:02.390 ,4,1,0.,12.0,0.,12.0,0.,12.0,0.,12.0
1979-07-27 01:09:14.390 ,0,1,0.,12.0,0.,12.0,0.,12.0,0.,12.0
1979-07-27 01:09:26.390 ,0,1,0.,12.0,0.,12.0,0.,12.0,0.,12.0
1979-07-27 01:09:38.390 ,3,1,0.,12.0,0.,12.0,0.,12.0,0.,12.0
1979-07-27 01:09:50.390 ,3,1,0.,12.0,0.,12.0,0.,12.0,0.,12.0
1979-07-27 01:10:02.390 ,7,1,0.,12.0,0.,12.0,0.,12.0,0.,12.0
1979-07-27 01:10:14.390 ,7,1,0.,12.0,0.,12.0,0.,12.0,0.,12.0
1979-07-27 01:10:26.390 ,4,1,0.,12.0,0.,12.0,0.,12.0,0.,12.0
1979-07-27 01:10:38.390 ,4,1,0.,12.0,0.,12.0,0.,12.0,0.,12.0
1979-07-27 01:10:50.390 ,0,1,0.,12.0,0.,12.0,0.,12.0,0.,12.0
1979-07-27 01:11:02.390 ,0,1,0.,12.0,0.,12.0,0.,12.0,0.,12.0
1979-07-27 01:11:14.390 ,3,1,0.,12.0,0.,12.0,0.,12.0,0.,12.0
1979-07-27 01:11:26.390 ,3,1,0.,12.0,0.,12.0,0.,12.0,0.,12.0
1979-07-27 01:11:38.390 ,7,1,0.,12.0,0.,12.0,0.,12.0,0.,12.0
1979-07-27 01:11:50.390 ,7,1,0.,12.0,0.,12.0,0.,12.0,0.,12.0
1979-07-27 01:12:02.390 ,4,1,0.,12.0,0.,12.0,0.,12.0,0.,12.0
1979-07-27 01:12:14.390 ,4,1,0.,12.0,0.,12.0,0.,12.0,0.,12.0
1979-07-27 01:12:26.390 ,0,1,0.,12.0,0.,12.0,0.,12.0,0.,12.0
1979-07-27 01:12:38.390 ,0,1,0.,12.0,0.,12.0,0.,12.0,0.,12.0
1979-07-27 01:12:50.390 ,3,1,0.,12.0,0.,12.0,0.,12.0,0.,12.0
1979-07-27 01:13:02.390 ,3,1,0.,12.0,0.,12.0,0.,12.0,0.,12.0
1979-07-27 01:13:14.390 ,7,1,0.,12.0,0.,12.0,0.,12.0,0.,12.0
1979-07-27 01:13:26.390 ,7,1,0.,12.0,0.,12.0,0.,12.0,0.,12.0
1979-07-27 01:13:38.390 ,4,1,0.,12.0,0.,12.0,0.,12.0,0.,12.0
1979-07-27 01:13:50.390 ,4,1,0.,12.0,0.,12.0,0.,12.0,0.,12.0
1979-07-27 01:14:02.390 ,0,1,0.,12.0,0.,12.0,0.,12.0,0.,12.0
1979-07-27 01:14:14.390 ,0,1,0.,12.0,0.,12.0,0.,12.0,0.,12.0
1979-07-27 01:14:26.390 ,3,1,0.,12.0,0.,12.0,0.,12.0,0.,12.0
1979-07-27 01:14:38.390 ,3,1,0.,12.0,0.,12.0,0.,12.0,0.,12.0
1979-07-27 01:14:50.390 ,7,1,0.,12.0,0.,12.0,0.,12.0,0.,12.0
1979-07-27 01:15:02.390 ,7,1,0.,12.0,0.,12.0,0.,12.0,0.,12.0
1979-07-27 01:15:14.390 ,4,1,0.,12.0,0.,12.0,0.,12.0,0.,12.0
1979-07-27 01:15:26.390 ,4,1,0.,12.0,0.,12.0,0.,12.0,0.,12.0
1979-07-27 01:15:38.390 ,0,1,0.,12.0,0.,12.0,0.,12.0,0.,12.0
1979-07-27 01:15:50.390 ,0,1,0.,12.0,0.,12.0,0.,12.0,0.,12.0
1979-07-27 01:16:02.390 ,3,1,0.,12.0,0.,12.0,0.,12.0,0.,12.0
1979-07-27 01:16:14.390 ,3,1,0.,12.0,0.,12.0,0.,12.0,0.,12.0
1979-07-27 01:16:26.390 ,7,1,0.,12.0,0.,12.0,0.,12.0,0.,12.0
1979-07-27 01:16:38.390 ,7,1,0.,12.0,0.,12.0,0.,12.0,0.,12.0
1979-07-27 01:16:50.390 ,4,1,0.,12.0,0.,12.0,0.,12.0,0.,12.0
1979-07-27 01:17:02.390 ,4,1,0.,12.0,0.,12.0,0.,12.0,0.,12.0
1979-07-27 01:17:14.390 ,0,1,0.,12.0,0.,12.0,0.,12.0,0.,12.0
1979-07-27 01:17:26.390 ,0,1,0.,12.0,0.,12.0,0.,12.0,0.,12.0